This demonstration page uses our WeatherBlox Daily Observations layout. Learn more.

Left ArrowRight Arrow

Hourly Observations for March 21, 2018

Temp ( °F °C ) Dew Point ( °F °C ) Humidity (%) Winds ( mph kmh ) Pressure ( in mb ) Visibility ( mi km ) Precip ( " mm )
12:11 am 00:11 Partly Cloudy 33 0.6 27 -2.8 78 78 NNW 8 13 30.15 1021 10 16 0.00 0.00
12:54 am 00:54 Clear 32 0 26 -3.3 79 79 WNW 3 6 30.12 1020 10 16 0.00 0.00
1:54 am 01:54 Clear 30 -1.1 26 -3.3 85 85 W 7 11 30.14 1021 10 16 0.00 0.00
2:54 am 02:54 Mostly Clear 27 -2.8 23 -5 85 85 Calm 30.15 1021 10 16 0.00 0.00
3:54 am 03:54 Mostly Clear 29 -1.7 25 -3.9 85 85 WNW 6 9 30.15 1021 10 16 0.00 0.00
4:54 am 04:54 Partly Cloudy 26 -3.3 23 -5 88 88 NNW 3 6 30.14 1021 9 14 0.00 0.00
5:54 am 05:54 Cloudy 26 -3.3 23 -5 88 88 Calm 30.16 1021 9 14 0.00 0.00
6:54 am 06:54 Mostly Clear 27 -2.8 23 -5 85 85 Calm 30.18 1022 9 14 0.00 0.00
7:54 am 07:54 Mostly Sunny 28 -2.2 25 -3.9 88 88 Calm 30.22 1023 8 13 0.00 0.00
8:54 am 08:54 Mostly Cloudy 31 -0.6 27 -2.8 85 85 Calm 30.23 1024 8 13 0.00 0.00
9:54 am 09:54 Mostly Sunny 35 1.7 30 -1.1 82 82 Calm 30.23 1024 9 14 0.00 0.00
10:54 am 10:54 Sunny 38 3.3 29 -1.7 70 70 VRB 3 6 30.23 1024 10 16 0.00 0.00
11:54 am 11:54 Sunny 43 6.1 32 0 65 65 SSW 10 17 30.23 1024 10 16 0.00 0.00
12:54 pm 12:54 Sunny 46 7.8 33 0.6 61 61 SSW 8 13 30.22 1023 10 16 0.00 0.00
1:54 pm 13:54 Sunny 51 10.6 34 1.1 52 52 SSW 7 11 30.20 1023 10 16 0.00 0.00
2:54 pm 14:54 Sunny 52 11.1 33 0.6 49 49 S 5 7 30.17 1022 10 16 0.00 0.00
3:54 pm 15:54 Sunny 54 12.2 32 0 43 43 SSW 6 9 30.16 1021 10 16 0.00 0.00
4:54 pm 16:54 Sunny 56 13.3 31 -0.6 39 39 undefined N/A 30.15 1021 10 16 0.00 0.00
4:58 pm 16:58 Sunny 56 13.3 30 -1.1 37 37 VRB 5 7 30.12 1020 10 16 0.00 0.00
5:54 pm 17:54 Sunny 56 13.3 31 -0.6 39 39 SSE 6 9 30.16 1021 10 16 0.00 0.00
6:54 pm 18:54 Sunny 54 12.2 32 0 43 43 SSE 10 17 30.15 1021 10 16 0.00 0.00
7:54 pm 19:54 Clear 50 10 32 0 50 50 SE 8 13 30.16 1021 10 16 0.00 0.00
8:54 pm 20:54 Clear 49 9.4 32 0 52 52 SE 10 17 30.17 1022 10 16 0.00 0.00
9:54 pm 21:54 Mostly Clear 46 7.8 31 -0.6 56 56 ESE 8 13 30.18 1022 10 16 0.00 0.00
10:54 pm 22:54 Partly Cloudy 46 7.8 31 -0.6 56 56 SE 6 9 30.19 1022 10 16 0.00 0.00
11:54 pm 23:54 Partly Cloudy 47 8.3 31 -0.6 54 54 SE 12 19 30.18 1022 10 16 0.00 0.00

Powered by AerisWeather